FW9792 Weather Reports


time (UTC)temp
F
wind
direction
speed
knots
gust
knots
rain 1hr
in
rain 24hr
in
rain mn
in
humidity
%
barometer
mb
20260506044505 64 35 5.2 9.6 0.00 0.00 0.00 77 1009.1
20260506043003 65 17 5.2 10.4 0.00 0.00 0.00 77 1009.0
20260506041559 66 360 5.2 11.3 0.00 0.00 0.00 76 1009.1
20260506040056 67 325 4.3 9.6 0.00 0.00 0.00 75 1009.2
20260506034553 67 32 4.3 10.4 0.00 0.00 0.00 74 1008.8
20260506033049 68 24 4.3 10.4 0.00 0.00 0.00 73 1008.3
20260506031550 68 5 4.3 8.7 0.00 0.00 0.00 73 1007.9
20260506030044 69 5 5.2 10.4 0.00 0.00 0.00 73 1007.4
20260506024547 69 331 4.3 12.2 0.00 0.00 0.00 72 1007.3
20260506023038 70 53 2.6 10.4 0.00 0.00 0.00 72 1007.1
20260506021536 71 355 4.3 9.6 0.00 0.00 0.00 72 1006.9
20260506020034 72 21 5.2 10.4 0.00 0.00 0.00 71 1006.5
20260506014536 73 36 4.3 9.6 0.00 0.00 0.00 70 1005.9
20260506013029 73 67 3.5 10.4 0.00 0.00 0.00 70 1005.6
20260506011526 74 36 3.5 7.8 0.00 0.00 0.00 69 1005.1
20260506010032 74 323 3.5 7.8 0.00 0.00 0.00 69 1005.2
20260506004525 75 331 5.2 10.4 0.00 0.00 0.00 67 1005.2
20260506003025 76 325 0.9 7.8 0.00 0.00 0.00 66 1004.7
20260506001532 76 9 3.5 10.4 0.00 0.00 0.00 64 1004.7
20260506000023 77 36 5.2 12.2 0.00 0.00 0.00 63 1004.8
20260505234528 79 360 4.3 12.2 0.00 0.00 0.00 63 1004.4
20260505233022 80 317 5.2 11.3 0.00 0.00 0.00 63 1004.0
20260505231522 81 297 6.1 11.3 0.00 0.00 0.00 63 1003.8
20260505230043 83 333 5.2 9.6 0.00 0.00 0.00 60 1003.6
20260505224521 85 5 3.5 11.3 0.00 0.00 0.00 55 1003.5
20260505223020 86 47 3.5 8.7 0.00 0.00 0.00 52 1003.3
20260505221520 90 17 0.9 3.5 0.00 0.00 0.00 51 1003.0
20260505220029 89 267 0.9 5.2 0.00 0.00 0.00 53 1002.8
20260505214518 89 295 0.9 5.2 0.00 0.00 0.00 53 1003.0
20260505213016 90 265 1.7 7.0 0.00 0.00 0.00 50 1003.0
20260505211516 90 292 1.7 7.0 0.00 0.00 0.00 50 1003.0
20260505210015 91 137 0.9 4.3 0.00 0.00 0.00 52 1003.5
20260505204511 90 175 0.0 4.3 0.00 0.00 0.00 53 1003.7
20260505203015 90 279 1.7 7.0 0.00 0.00 0.00 52 1003.6
20260505201513 89 266 2.6 8.7 0.00 0.00 0.00 54 1004.0
20260505200007 89 192 0.0 5.2 0.00 0.00 0.00 55 1004.1
20260505194504 89 208 2.6 8.7 0.00 0.00 0.00 56 1004.2
20260505193001 88 148 0.9 5.2 0.00 0.00 0.00 59 1004.2
20260505191618 88 154 1.7 9.6 0.00 0.00 0.00 62 1004.1
20260505190058 87 164 1.7 7.0 0.00 0.00 0.00 62 1004.2
20260505184554 87 144 0.9 6.1 0.00 0.00 0.00 66 1004.3
20260505183051 86 165 1.7 6.1 0.00 0.00 0.00 67 1004.5
20260505181548 85 195 0.9 7.0 0.00 0.00 0.00 69 1004.6
20260505180059 84 118 1.7 7.8 0.00 0.00 0.00 70 1004.8
20260505174552 83 160 0.9 6.1 0.00 0.00 0.00 71 1004.9
20260505173039 82 150 1.7 4.3 0.00 0.00 0.00 73 1005.0
20260505171535 81 161 1.7 7.8 0.00 0.00 0.00 74 1005.1
20260505170034 81 123 1.7 6.1 0.00 0.00 0.00 74 1005.0
20260505164533 80 156 1.7 10.4 0.00 0.00 0.00 75 1005.0
20260505163030 80 154 2.6 7.0 0.00 0.00 0.00 76 1004.9
20260505161525 79 130 1.7 7.0 0.00 0.00 0.00 77 1004.6
20260505153017 76 179 2.6 8.7 0.00 0.00 0.00 81 1004.6
20260505151516 76 161 2.6 7.8 0.00 0.00 0.00 81 1004.6
20260505124505 71 196 1.7 6.1 0.00 0.00 0.00 88 1004.1
20260505123001 71 222 1.7 4.3 0.00 0.00 0.00 88 1003.9
20260505121600 71 169 1.7 4.3 0.00 0.00 0.00 88 1003.9
20260505120104 70 198 0.9 4.3 0.00 0.00 0.00 88 1003.9
20260505114602 70 127 0.9 6.1 0.00 0.00 0.00 88 1003.6
20260505113057 70 170 0.9 4.3 0.00 0.00 0.00 89 1003.6
20260505111557 70 146 0.9 7.0 0.00 0.00 0.00 89 1003.5
20260505101608 69 146 0.0 5.2 0.00 0.00 0.00 89 1003.3
20260505094551 69 157 0.9 7.8 0.00 0.00 0.00 89 1003.6
20260505093100 70 139 0.9 6.1 0.00 0.00 0.00 88 1003.7
20260505091549 70 144 1.7 4.3 0.00 0.00 0.00 88 1003.9
20260505090048 70 163 0.9 4.3 0.00 0.00 0.00 88 1003.9
20260505084545 70 177 1.7 5.2 0.00 0.00 0.00 87 1003.8
20260505083044 71 153 0.9 6.1 0.00 0.00 0.00 86 1004.2
20260505081556 71 173 0.9 7.0 0.00 0.00 0.00 85 1004.1
20260505080055 71 154 1.7 7.0 0.00 0.00 0.00 84 1004.0
20260505074538 71 170 1.7 5.2 0.00 0.00 0.00 83 1004.1
20260505073039 72 156 1.7 7.0 0.00 0.00 0.00 82 1004.3
20260505071533 72 146 1.7 6.1 0.00 0.00 0.00 81 1004.7
20260505070032 72 194 1.7 9.6 0.00 0.00 0.00 81 1004.9
20260505064530 72 167 0.9 9.6 0.00 0.00 0.00 80 1005.2
20260505063030 72 161 1.7 8.7 0.00 0.00 0.00 79 1005.5
20260505061533 73 163 1.7 6.1 0.00 0.00 0.00 79 1005.4
20260505060025 73 146 0.9 8.7 0.00 0.00 0.00 78 1005.4